Weather History for Drummond Island, MI

Change the Weather History Date:

Wednesday, July 24, 2013

  Actual Average (KCIU) Record (KCIU)
Temperature  
Mean Temperature 58 °F -  
Max Temperature 69 °F 78 °F 90 °F (1989)
Min Temperature 46 °F 48 °F 37 °F (1992)
Degree Days  
Heating Degree Days 8    
Growing Degree Days 8 (Base 50)    
Moisture  
Dew Point 48 °F    
Average Humidity 68    
Maximum Humidity 97    
Minimum Humidity 46    
Precipitation  
Precipitation 0.00 in - - ()
Sea Level Pressure  
Sea Level Pressure 30.01 in    
Wind  
Wind Speed 4 mph (WNW)    
Max Wind Speed 9 mph    
Max Gust Speed -    
Visibility 10 miles    
Events      
Averages and records for this station are not official NWS values.
T = Trace of Precipitation, MM = Missing Value Source: NWS Daily Summary

Daily Weather History Graph

Daily Weather History Graph

Search for Another Location

Airport:

Trip Planner

Search our weather history database for the weather conditions in past years. The results will help you decide how hot, cold, wet, or windy it might be!

Date:

Astronomy

Jul. 24, 2013 Rise Set
Actual Time 6:08 AM EDT 9:13 PM EDT
Civil Twilight 5:32 AM EDT 9:49 PM EDT
Nautical Twilight 4:46 AM EDT 10:35 PM EDT
Astronomical Twilight 3:50 AM EDT 11:30 PM EDT
Moon 10:06 PM EDT (7/24) 8:38 AM EDT (7/24)
Length of Visible Light 16h 16m
Length of Day
15h 05m
Waning Gibbous, 95% of the Moon is Illuminated
Jul 24
Waning Gibbous
Jul 29
Last Quarter
Aug 6
New
Aug 14
First Quarter
Aug 20
Full

Hourly Weather History & Observations

Time (EDT) Temp. Dew Point Humidity Pressure Visibility Wind Dir Wind Speed Gust Speed Precip Events Conditions
12:15 AM 55.6 °F 45.9 °F 70% 29.93 in 10.0 mi North 6.9 mph - N/A   Clear
12:36 AM 55.0 °F 44.6 °F 68% 29.93 in 10.0 mi North 9.2 mph - N/A   Clear
12:56 AM 55.4 °F 44.1 °F 66% 29.94 in 10.0 mi NNE 6.9 mph - N/A   Scattered Clouds
1:16 AM 54.5 °F 44.6 °F 69% 29.94 in 10.0 mi North 6.9 mph - N/A   Scattered Clouds
1:36 AM 53.6 °F 44.6 °F 72% 29.95 in 10.0 mi North 5.8 mph - N/A   Clear
1:56 AM 54.3 °F 43.9 °F 68% 29.95 in 10.0 mi NNW 4.6 mph - N/A   Clear
2:16 AM 54.0 °F 44.1 °F 69% 29.94 in 10.0 mi NW 3.5 mph - N/A   Clear
2:36 AM 53.4 °F 43.9 °F 70% 29.95 in 10.0 mi NW 4.6 mph - N/A   Clear
2:56 AM 52.5 °F 44.2 °F 73% 29.95 in 10.0 mi NW 3.5 mph - N/A   Clear
3:16 AM 52.7 °F 44.4 °F 73% 29.96 in 10.0 mi NW 3.5 mph - N/A   Clear
3:36 AM 52.2 °F 44.4 °F 75% 29.96 in 10.0 mi Calm Calm - N/A   Clear
3:55 AM 51.8 °F 44.6 °F 76% 29.96 in 10.0 mi Calm Calm - N/A   Clear
4:16 AM 50.9 °F 44.6 °F 79% 29.97 in 10.0 mi Calm Calm - N/A   Clear
4:36 AM 51.1 °F 44.8 °F 79% 29.96 in 10.0 mi Calm Calm - N/A   Clear
4:55 AM 51.1 °F 45.0 °F 80% 29.97 in 10.0 mi Calm Calm - N/A   Clear
5:16 AM 51.4 °F 45.0 °F 79% 29.97 in 10.0 mi Calm Calm - N/A   Clear
5:36 AM 50.2 °F 45.0 °F 82% 29.98 in 10.0 mi Calm Calm - N/A   Clear
5:56 AM 48.2 °F 45.5 °F 90% 29.98 in 10.0 mi Calm Calm - N/A   Clear
6:16 AM 46.9 °F 45.0 °F 93% 29.98 in 10.0 mi Calm Calm - N/A   Clear
6:36 AM 46.6 °F 44.8 °F 93% 29.99 in 10.0 mi Calm Calm - N/A   Clear
6:56 AM 47.7 °F 45.9 °F 93% 29.99 in 10.0 mi Calm Calm - N/A   Clear
7:16 AM 48.9 °F 47.3 °F 94% 30.00 in 10.0 mi Calm Calm - N/A   Clear
7:36 AM 55.6 °F 48.7 °F 78% 30.00 in 10.0 mi Calm Calm - N/A   Clear
7:56 AM 56.5 °F 50.2 °F 79% 30.01 in 10.0 mi West 4.6 mph - N/A   Clear
8:16 AM 57.2 °F 50.2 °F 77% 30.02 in 10.0 mi WNW 5.8 mph - N/A   Clear
8:36 AM 57.4 °F 50.0 °F 76% 30.03 in 10.0 mi West 4.6 mph - N/A   Clear
8:56 AM 59.0 °F 49.8 °F 72% 30.03 in 10.0 mi NW 3.5 mph - N/A   Clear
9:16 AM 59.4 °F 48.9 °F 68% 30.03 in 10.0 mi NW 4.6 mph - N/A   Clear
9:36 AM 60.3 °F 49.1 °F 67% 30.03 in 10.0 mi NW 5.8 mph - N/A   Clear
9:56 AM 61.2 °F 49.6 °F 66% 30.04 in 10.0 mi NW 4.6 mph - N/A   Clear
10:15 AM 61.7 °F 49.6 °F 65% 30.04 in 10.0 mi WNW 8.1 mph - N/A   Clear
10:36 AM 61.7 °F 49.1 °F 63% 30.05 in 10.0 mi NNW 6.9 mph - N/A   Clear
10:56 AM 62.2 °F 48.0 °F 60% 30.05 in 10.0 mi NW 5.8 mph - N/A   Clear
11:16 AM 63.1 °F 48.4 °F 59% 30.05 in 10.0 mi West 5.8 mph - N/A   Clear
11:36 AM 64.6 °F 47.7 °F 54% 30.05 in 10.0 mi West 5.8 mph - N/A   Clear
11:55 AM 64.6 °F 47.3 °F 53% 30.05 in 10.0 mi West 6.9 mph - N/A   Clear
12:16 PM 65.5 °F 48.6 °F 54% 30.05 in 10.0 mi WNW 6.9 mph - N/A   Clear
12:36 PM 66.9 °F 49.6 °F 54% 30.04 in 10.0 mi WNW 4.6 mph - N/A   Scattered Clouds
12:56 PM 66.9 °F 48.6 °F 52% 30.04 in 10.0 mi WNW 5.8 mph - N/A   Scattered Clouds
1:15 PM 66.6 °F 48.7 °F 53% 30.04 in 10.0 mi West 9.2 mph - N/A   Scattered Clouds
1:36 PM 67.1 °F 48.6 °F 51% 30.03 in 10.0 mi West 4.6 mph - N/A   Scattered Clouds
1:55 PM 67.8 °F 48.4 °F 50% 30.03 in 10.0 mi WNW 6.9 mph - N/A   Scattered Clouds
2:15 PM 68.7 °F 48.4 °F 48% 30.03 in 10.0 mi NW 5.8 mph - N/A   Clear
2:36 PM 68.5 °F 48.2 °F 48% 30.02 in 10.0 mi WNW 5.8 mph - N/A   Clear
2:56 PM 68.9 °F 48.2 °F 48% 30.02 in 10.0 mi Calm Calm - N/A   Clear
3:16 PM 68.4 °F 47.7 °F 48% 30.02 in 10.0 mi West 6.9 mph - N/A   Clear
3:36 PM 69.1 °F 47.7 °F 46% 30.01 in 10.0 mi WNW 5.8 mph - N/A   Clear
3:56 PM 69.4 °F 47.7 °F 46% 30.01 in 10.0 mi West 5.8 mph - N/A   Clear
4:16 PM 68.7 °F 51.4 °F 54% 30.01 in 10.0 mi WSW 6.9 mph - N/A   Clear
4:36 PM 68.5 °F 51.4 °F 54% 30.02 in 10.0 mi SW 6.9 mph - N/A   Clear
5:01 PM 68.2 °F 51.3 °F 55% 30.02 in 10.0 mi SW 8.1 mph - N/A   Clear
5:16 PM 68.9 °F 51.3 °F 53% 30.02 in 10.0 mi SW 9.2 mph - N/A   Clear
5:36 PM 68.5 °F 51.6 °F 55% 30.01 in 10.0 mi SW 8.1 mph - N/A   Clear
5:56 PM 68.2 °F 50.9 °F 54% 30.00 in 10.0 mi SW 9.2 mph - N/A   Clear
6:16 PM 67.6 °F 50.2 °F 54% 30.00 in 10.0 mi SW 9.2 mph - N/A   Clear
6:36 PM 66.6 °F 50.0 °F 55% 30.01 in 10.0 mi SW 6.9 mph - N/A   Clear
6:56 PM 66.2 °F 50.9 °F 58% 30.01 in 10.0 mi SW 5.8 mph - N/A   Clear
7:16 PM 65.3 °F 51.3 °F 60% 30.01 in 10.0 mi SSW 6.9 mph - N/A   Clear
7:35 PM 64.4 °F 51.1 °F 62% 30.02 in 10.0 mi SW 4.6 mph - N/A   Clear
7:56 PM 65.3 °F 50.9 °F 60% 30.02 in 10.0 mi SSW 5.8 mph - N/A   Clear
8:15 PM 64.4 °F 51.1 °F 62% 30.02 in 10.0 mi SW 3.5 mph - N/A   Clear
8:36 PM 63.1 °F 51.3 °F 65% 30.03 in 10.0 mi SW 3.5 mph - N/A   Clear
8:56 PM 61.2 °F 51.3 °F 70% 30.03 in 10.0 mi Calm Calm - N/A   Clear
9:16 PM 59.9 °F 51.1 °F 73% 30.03 in 10.0 mi Calm Calm - N/A   Clear
9:41 PM 58.3 °F 51.4 °F 78% 30.04 in 10.0 mi Calm Calm - N/A   Clear
9:56 PM 56.5 °F 51.8 °F 84% 30.04 in 10.0 mi Calm Calm - N/A   Clear
10:16 PM 55.6 °F 51.6 °F 87% 30.04 in 10.0 mi Calm Calm - N/A   Clear
10:36 PM 54.3 °F 51.6 °F 91% 30.04 in 10.0 mi Calm Calm - N/A   Clear
10:56 PM 53.1 °F 51.1 °F 93% 30.04 in 10.0 mi Calm Calm - N/A   Clear
11:16 PM 54.5 °F 51.6 °F 90% 30.04 in 10.0 mi Calm Calm - N/A   Clear
11:36 PM 54.1 °F 52.2 °F 93% 30.04 in 10.0 mi Calm Calm - N/A   Clear
11:56 PM 52.5 °F 51.6 °F 97% 30.04 in 10.0 mi Calm Calm - N/A   Clear